Regional Weather Roundup
Issued by NWS State College, PA

Home | Current Version | Previous Version | Graphics & Text | Print | Product List | Glossary Off
Versions: 1 2 3 4 5 6 7 8 9 10 11 12 13 14 15 16 17 18 19 20 21 22 23 24 25 26 27 28 29 30 31 32 33 34 35 36 37 38 39 40 41 42 43 44 45 46 47 48 49 50

000
ASUS41 KCTP 100703
RWRCTP

REGIONAL WEATHER ROUNDUP
NATIONAL WEATHER SERVICE STATE COLLEGE PA
300 AM EDT THU JUL 10 2014

Note: "fair" indicates few or no clouds below 12,000 feet with no
significant weather and/or obstructions to visibility.

* = STATION THAT DOES NOT REPORT PRECIPITATION /E.G. RAIN...SNOW...ETC/
    THUNDER OR FOG.

PAZ002>004-007>009-013>016-020>023-029>032-100800-
WESTERN PENNSYLVANIA

CITY           SKY/WX    TMP DP  RH WIND       PRES   REMARKS
ERIE           CLEAR     58  54  86 CALM      30.06R
MEADVILLE      CLEAR     57  52  83 CALM      30.07R
FRANKLIN*      CLEAR     57  54  88 CALM      30.08R
NEW CASTLE     NOT AVBL
BEAVER COUNTY  NOT AVBL
BUTLER*        PTCLDY    61  57  88 CALM      30.07S
PITTSBURGH INT MOCLDY    66  62  87 N3        30.05R
PITTSBURGH     MOCLDY    68  58  70 E6        30.04R
INDIANA*       CLOUDY    63  61  94 CALM      30.09S
LATROBE        CLEAR     61  61 100 CALM      30.05S
WASHINGTON CO* MOCLDY    57  55  94 CALM      30.05S
$$

PAZ004>006-010>012-017>019-024>028-033>037-041-042-045-046-049>053-100800-
CENTRAL PENNSYLVANIA

CITY           SKY/WX    TMP DP  RH WIND       PRES   REMARKS
BRADFORD       PTCLDY    53  50  89 CALM      30.08S
DUBOIS         MOCLDY    62  59  90 E3        30.07R
CLEARFIELD     CLOUDY    61  60  97 CALM      30.07R
JOHNSTOWN      CLEAR     61  57  87 E3        30.08R
ALTOONA        CLEAR     60  59  96 CALM      30.06R
STATE COLLEGE  PTCLDY    62  60  94 CALM      30.04S
WILLIAMSPORT   CLOUDY    65  62  90 N3        30.02R
SELINSGROVE    CLEAR     64  62  93 NW6       30.02S
FT INDIANTOWN  CLEAR     67  66  99 N3        30.01R
CAPITAL CITY   CLEAR     66  62  87 SW5       30.00R
HARRISBURG     PTCLDY    70  61  73 NW6       29.99R
YORK           CLEAR     67  66  97 CALM      29.99S FOG
$$

PAZ038>040-043-044-047-048-054-055-060>062-067>071-100800-
EASTERN PENNSYLVANIA

CITY           SKY/WX    TMP DP  RH WIND       PRES   REMARKS
SCRANTON       PTCLDY    62  59  90 CALM      30.03R
MOUNT POCONO   CLEAR     59  57  93 CALM      30.05S
ALLENTOWN      PTCLDY    65  63  93 NW3       30.00S
QUAKERTOWN*    PTSUNNY   66  63  88 CALM      30.02R
READING        PTCLDY    68  64  87 N6        29.99R
LANCASTER      PTCLDY    68  65  90 N5        30.00R
COATESVILLE    PTSUNNY   68  68 100 CALM      30.01R FOG
POTTSTOWN      MOCLDY    70  63  78 N3        30.01S
BLUE BELL      CLOUDY    72  70  94 CALM      29.98S
DOYLESTOWN     CLOUDY    70  66  87 NE3       30.00R
WILLOW GROVE   NOT AVBL
NORTH PHILA    CLOUDY    76  67  73 N6        30.00R
PHILADELPHIA   CLOUDY    76  68  76 SW7       29.99R
$$


USA.gov is the U.S. government's official web portal to all federal, state and local government web resources and services.